Weather in Talon

Russia / Magadan District     59°45′46″N   148°39′19″E
temp.,
°C
wind,
m/s
gust,
m/s
humid.,
%
clouds,
%
prec.,
mm/h
press.,
hPa
HPBL,
m
14 may, fri
fri1423:00+2ese2270100 0.0 101378
02:00+1ese1276100 0.0 101351
05:000e128285 0.0 101253
08:00+1ese227315 0.0 1013295
11:00+5ese22575 0.0 1012698
14:00+8ene225093 0.0 10121153
17:00+9e325032 0.0 10121003
20:00+7sse33585 0.0 1013373
15 may, sat
sat1523:00+4se23735 0.0 101589
02:00+2ese22826 0.0 101633
05:000e22897 0.0 101738
08:00+1ese228364 0.0 1018280
11:00+4ese337217 0.0 1018465
14:00+7ese44629 0.0 1017734
17:00+7se556497 0.0 1017826
20:00+3ese558180 0.0 1018474
16 may, sun
sun1623:00+2e3598100 0.3 1018244
02:00+1e3599100 0.4 1017201
05:00+1ese4698100 1.1 1017252
08:00+1ese5990100 0.3 1016582
11:00+3ese4981100 0.3 1014802
14:00+7ese81261100 0.0 10111445
17:00+2ese81687100 0.6 1010781
20:00+2ese81696100 2.4 1008914
17 may, mon
mon1723:00+2e142089100 4.3 1008930
02:00+2e131887100 2.4 1006894
05:00+3e111883100 4.5 1004929
08:00+2e101793100 1.1 10041153
11:00+2e121792100 3.8 10031151
14:00+2ese121790100 2.9 10021100
17:00+2ese91687100 5.4 10021051
20:00+2e81389100 0.9 1002934
18 may, tue
tue1823:00+1e3999100 2.6 1002506
02:00+1e41199100 1.9 1002596
05:00+1e38100100 3.9 1002452
08:00+1e39100100 1.7 1002508
11:00+1ese51197100 2.8 1002770
14:00+2ese598692 0.3 1002803
17:00+3se578499 0.4 1001668
20:00+2se358993 0.1 1001476